Home > Weather > Howell > Past weeks

Flag for USA Past Weather in Howell, Michigan, USA — Yesterday and Last 2 Weeks

Now
72 °F

Sunny.


Feels Like: 73 °F
Forecast: 65 / 84 °F
Wind: No wind

Location: Livingston County Airport

Current Time: May 27, 2016 at 10:17:13 AM

Latest Report: May 27, 2016 at 9:34 AM


Visibility: 10 mi

Pressure: 29.98 "Hg

Humidity: 77%

Dew Point: 65 °F

Location of HowellLocation

Past Weather in Howell — Graph

°F

Howell Temperature Yesterday

Maximum temperature yesterday: 83 °F (at 4:55 PM)
Minimum temperature yesterday: 64 °F (at 5:54 AM)
Average temperature yesterday: 75 °F

High & Low Weather Summary for the Past Weeks

 TemperatureHumidityPressure
High84 °F (May 25, 2:15 PM)99% (May 13, 2:34 AM)30.26 "Hg (May 13, 2:34 AM)
Low33 °F (May 15, 6:14 AM)17% (May 22, 6:34 PM)29.59 "Hg (May 14, 4:15 AM)
Average59 °F59%30.04 "Hg
* Reported May 12 9:14 AM — May 27 9:15 AM, Howell, Weather by CustomWeather, © 2016

Note: Actual official high and low records may vary slightly from our data, if they occured in-between our weather recording intervals... More about our weather records

Advertising

Howell Weather History for the Previous 24 Hours

Scroll right to see more
 ConditionsComfort  
Time TempWeatherWind HumidityBarometerVisibility
9:15 AM
Fri, May 27
72 °FSunny.No wind80%29.98 "Hg10 mi
8:54 AM71 °FSunny.No wind80%29.98 "Hg10 mi
8:34 AM70 °FSunny.No wind82%29.98 "Hg10 mi
8:15 AM69 °FSunny.3 mph84%29.98 "Hg10 mi
7:54 AM68 °FSunny.5 mph86%29.98 "Hg10 mi
7:34 AM66 °FSunny.5 mph89%29.98 "Hg10 mi
7:15 AM66 °FSunny.5 mph90%29.98 "Hg10 mi
6:54 AM65 °FClear.5 mph92%29.98 "Hg10 mi
6:34 AM64 °FClear.3 mph92%29.98 "Hg10 mi
6:15 AM64 °FClear.3 mph91%29.97 "Hg10 mi
5:54 AM64 °FClear.No wind91%29.96 "Hg10 mi
5:34 AM64 °FClear.No wind90%29.96 "Hg10 mi
5:15 AM64 °FClear.3 mph89%29.96 "Hg10 mi
4:54 AM65 °FClear.3 mph89%29.96 "Hg10 mi
4:34 AM65 °FClear.5 mph88%29.95 "Hg10 mi
4:14 AM65 °FPassing clouds.6 mph88%29.95 "Hg10 mi
3:54 AM66 °FClear.5 mph87%29.95 "Hg10 mi
3:34 AM66 °FClear.5 mph88%29.94 "Hg10 mi
3:14 AM65 °FClear.No wind89%29.94 "Hg10 mi
2:54 AM65 °FClear.No wind88%29.94 "Hg10 mi
2:35 AM65 °FClear.No wind87%29.94 "Hg10 mi
2:14 AM65 °FClear.No wind84%29.94 "Hg10 mi
1:54 AM67 °FClear.No wind79%29.93 "Hg10 mi
1:35 AM70 °FClear.No wind70%29.93 "Hg10 mi
1:14 AM71 °FClear.No wind69%29.94 "Hg10 mi
12:54 AM70 °FClear.No wind70%29.94 "Hg10 mi
12:35 AM71 °FPassing clouds.3 mph70%29.93 "Hg10 mi
12:14 AM71 °FPassing clouds.3 mph69%29.94 "Hg10 mi
11:54 PM
Thu, May 26
72 °FClear.3 mph69%29.94 "Hg10 mi
11:35 PM73 °FClear.5 mph66%29.94 "Hg10 mi
11:14 PM75 °FClear.6 mph62%29.94 "Hg10 mi
10:54 PM75 °FClear.6 mph63%29.94 "Hg10 mi
10:35 PM75 °FClear.6 mph65%29.94 "Hg10 mi
10:14 PM75 °FPassing clouds.5 mph67%29.93 "Hg10 mi
9:54 PM77 °FBroken clouds.5 mph63%29.91 "Hg10 mi
9:35 PM77 °FScattered clouds.3 mph62%29.90 "Hg10 mi
9:14 PM78 °FPartly sunny.6 mph60%29.88 "Hg10 mi
8:54 PM79 °FScattered clouds.7 mph58%29.87 "Hg10 mi
8:34 PM80 °FSunny.7 mph56%29.87 "Hg10 mi
8:14 PM81 °FSunny.7 mph54%29.87 "Hg10 mi
7:55 PM81 °FSunny.6 mph54%29.87 "Hg10 mi
7:34 PM82 °FScattered clouds.7 mph52%29.88 "Hg10 mi
7:14 PM83 °FScattered clouds.7 mph51%29.88 "Hg10 mi
6:55 PM82 °FScattered clouds.7 mph54%29.88 "Hg10 mi
6:34 PM82 °FBroken clouds.3 mph52%29.88 "Hg10 mi
6:14 PM82 °FSunny.6 mph50%29.88 "Hg10 mi
5:55 PM83 °FSunny.8 mph49%29.88 "Hg10 mi
5:34 PM82 °FScattered clouds.7 mph50%29.88 "Hg10 mi
5:14 PM83 °FScattered clouds.9 mph47%29.90 "Hg10 mi
4:55 PM83 °FScattered clouds.10 mph48%29.91 "Hg10 mi
4:34 PM82 °FScattered clouds.8 mph50%29.91 "Hg10 mi
4:14 PM82 °FSunny.9 mph50%29.91 "Hg10 mi
3:55 PM82 °FScattered clouds.13 mph49%29.91 "Hg10 mi
3:34 PM83 °FScattered clouds.15 mph49%29.92 "Hg10 mi
3:14 PM82 °FSunny.12 mph50%29.92 "Hg10 mi
2:55 PM82 °FScattered clouds.12 mph49%29.92 "Hg10 mi
2:34 PM82 °FSunny.10 mph51%29.93 "Hg10 mi
2:14 PM83 °FScattered clouds.15 mph50%29.94 "Hg10 mi
1:55 PM81 °FBroken clouds.14 mph55%29.95 "Hg10 mi
1:34 PM81 °FScattered clouds.9 mph55%29.95 "Hg10 mi
1:14 PM80 °FScattered clouds.12 mph58%29.96 "Hg10 mi
12:54 PM80 °FScattered clouds.9 mph60%29.97 "Hg10 mi
12:34 PM79 °FScattered clouds.12 mph60%29.97 "Hg10 mi
12:15 PM79 °FSunny.9 mph62%29.97 "Hg10 mi
11:54 AM78 °FScattered clouds.10 mph64%29.97 "Hg10 mi
11:34 AM78 °FScattered clouds.10 mph68%29.98 "Hg10 mi
11:15 AM77 °FScattered clouds.8 mph69%29.98 "Hg10 mi
10:54 AM76 °FSunny.9 mph71%29.98 "Hg10 mi
10:34 AM76 °FSunny.9 mph71%29.98 "Hg10 mi
10:14 AM75 °FSunny.9 mph72%29.97 "Hg10 mi
Weather by CustomWeather, © 2016

See weather overviewHow to use our weather pages